﻿_id,日時,平均風速(m/s),平均風向,最大瞬間風速(m/s),最大風速時風向,気温(℃),湿度(%),10分間移動積算雨量(mm),1時間移動積算雨量(mm),日雨量(mm),累計雨量(mm)
1,2022-03-14T00:00:00,4,南,7.1,南東,15.5,79.5,0,0,0,0
2,2022-03-14T00:01:00,4,南,7.1,南東,15.4,79.9,0,0,0,0
3,2022-03-14T00:02:00,3.7,南,6.9,南東,15.4,80.4,0,0,0,0
4,2022-03-14T00:03:00,3.4,南,6.9,南東,15.4,80.6,0,0,0,0
5,2022-03-14T00:04:00,3.4,南,6.9,南東,15.5,80.9,0,0,0,0
6,2022-03-14T00:05:00,3.6,南,6.9,南東,15.8,79.8,0,0,0,0
7,2022-03-14T00:06:00,3.3,南,6,南南東,15.6,79.1,0,0,0,0
8,2022-03-14T00:07:00,3.3,南,6,南南東,15.5,79.8,0,0,0,0
9,2022-03-14T00:08:00,3.2,南南東,6,南南東,15.4,80.3,0,0,0,0
10,2022-03-14T00:09:00,3.1,南南東,6,南南東,15.3,81,0,0,0,0
11,2022-03-14T00:10:00,3.2,南南東,6.2,南,15.2,81.7,0,0,0,0
12,2022-03-14T00:11:00,3.3,南南東,6.2,南,15.1,82.3,0,0,0,0
13,2022-03-14T00:12:00,3.4,南南東,6.2,南,15.1,83,0,0,0,0
14,2022-03-14T00:13:00,3.5,南南東,6.2,南,15.1,83.6,0,0,0,0
15,2022-03-14T00:14:00,3.4,南南東,6.2,南,15.1,83.6,0,0,0,0
16,2022-03-14T00:15:00,3.1,南南東,6.2,南,15.1,83.6,0,0,0,0
17,2022-03-14T00:16:00,3,南南東,6.2,南,15.1,83.9,0,0,0,0
18,2022-03-14T00:17:00,3,南,6.2,南,15,84,0,0,0,0
19,2022-03-14T00:18:00,3.1,南,6.2,南,15,84.3,0,0,0,0
20,2022-03-14T00:19:00,3.2,南,6.2,南,15,84.4,0,0,0,0
21,2022-03-14T00:20:00,3,南,5.2,南,15.1,84.5,0,0,0,0
22,2022-03-14T00:21:00,3,南,6,南南東,15,84.4,0,0,0,0
23,2022-03-14T00:22:00,3.1,南,6,南南東,15,84.7,0,0,0,0
24,2022-03-14T00:23:00,3.1,南,6,南南東,15,84.8,0,0,0,0
25,2022-03-14T00:24:00,3.2,南,6,南南東,15,84.9,0,0,0,0
26,2022-03-14T00:25:00,3.4,南,6,南南東,15,85.1,0,0,0,0
27,2022-03-14T00:26:00,3.5,南,6,南南東,14.9,85.3,0,0,0,0
28,2022-03-14T00:27:00,3.5,南,6,南南東,14.8,85.7,0,0,0,0
29,2022-03-14T00:28:00,3.4,南,6,南南東,14.7,86.3,0,0,0,0
30,2022-03-14T00:29:00,3.4,南,6,南南東,14.8,86.8,0,0,0,0
31,2022-03-14T00:30:00,3.4,南,6,南南東,14.7,87.1,0,0,0,0
32,2022-03-14T00:31:00,3.2,南,5.7,南,14.7,87.2,0,0,0,0
33,2022-03-14T00:32:00,3.1,南,5.1,南南東,14.9,87.6,0,0,0,0
34,2022-03-14T00:33:00,3.2,南,5.2,南南東,15,87.2,0,0,0,0
35,2022-03-14T00:34:00,3.2,南,5.3,南南東,15.1,86.9,0,0,0,0
36,2022-03-14T00:35:00,3.1,南,5.3,南南東,15.2,86.3,0,0,0,0
37,2022-03-14T00:36:00,3,南,5.3,南南東,15.2,85.6,0,0,0,0
38,2022-03-14T00:37:00,2.9,南,5.3,南南東,15.1,85,0,0,0,0
39,2022-03-14T00:38:00,2.8,南,5.3,南南東,15.2,85.2,0,0,0,0
40,2022-03-14T00:39:00,2.6,南,5.3,南南東,15.4,84.7,0,0,0,0
41,2022-03-14T00:40:00,2.4,南南東,5.3,南南東,15.2,83.5,0,0,0,0
42,2022-03-14T00:41:00,2.2,南,5.3,南南東,15.1,84.2,0,0,0,0
43,2022-03-14T00:42:00,2.2,南,5.6,北西,15.2,84.9,0,0,0,0
44,2022-03-14T00:43:00,2.2,南西,5.6,北西,15.3,84.4,0,0,0,0
45,2022-03-14T00:44:00,2.2,西,5.6,北西,15.3,83.9,0,0,0,0
46,2022-03-14T00:45:00,2.4,西北西,5.6,北西,15.2,83.8,0,0,0,0
47,2022-03-14T00:46:00,2.7,北西,6.5,北北西,15.2,84,0,0,0,0
48,2022-03-14T00:47:00,3.1,北西,7.9,北西,15.3,84.1,0,0,0,0
49,2022-03-14T00:48:00,3.5,北西,7.9,北西,15.5,83.5,0,0,0,0
50,2022-03-14T00:49:00,3.8,北西,7.9,北西,15.5,82.3,0,0,0,0
51,2022-03-14T00:50:00,4.2,北西,7.9,北西,15.5,81.8,0,0,0,0
52,2022-03-14T00:51:00,4.6,北北西,7.9,北西,15.5,81.2,0,0,0,0
53,2022-03-14T00:52:00,5,北北西,12.7,北,15.3,79.6,0,0,0,0
54,2022-03-14T00:53:00,5.4,北北西,14.6,北北西,14.9,76.9,0.5,0.5,0.5,0.5
55,2022-03-14T00:54:00,5.7,北北西,14.6,北北西,14.7,76.6,0.5,0.5,0.5,0.5
56,2022-03-14T00:55:00,5.9,北北西,14.6,北北西,14.4,78.5,1,1,1,1
57,2022-03-14T00:56:00,5.8,北西,14.6,北北西,14.1,79.7,1,1,1,1
58,2022-03-14T00:57:00,5.7,北西,14.6,北北西,13.9,79.4,1,1,1,1
59,2022-03-14T00:58:00,5.5,北西,14.6,北北西,13.7,78.9,1.5,1.5,1.5,1.5
60,2022-03-14T00:59:00,5.4,北西,14.6,北北西,13.6,79.9,2,2,2,2
61,2022-03-14T01:00:00,5.1,北西,14.6,北北西,13.5,80.4,2,2,2,2
62,2022-03-14T01:01:00,5,北西,14.6,北北西,13.4,80.7,2.5,2.5,2.5,2.5
63,2022-03-14T01:02:00,4.7,西北西,14.6,北北西,13.4,80.9,3,3,3,3
64,2022-03-14T01:03:00,4.2,西北西,9.4,西北西,13.3,81.6,2.5,3,3,3
65,2022-03-14T01:04:00,3.9,西北西,9.4,西北西,13.3,81.9,3,3.5,3.5,3.5
66,2022-03-14T01:05:00,3.7,西北西,9.4,西北西,13.3,82,2.5,3.5,3.5,3.5
67,2022-03-14T01:06:00,3.8,西北西,9.4,西北西,13.2,82.7,2.5,3.5,3.5,3.5
68,2022-03-14T01:07:00,3.5,西北西,7.6,西北西,13.3,82.7,3,4,4,4
69,2022-03-14T01:08:00,3.3,西,7.6,西北西,13.2,82.6,2.5,4,4,4
70,2022-03-14T01:09:00,3.1,西,7.6,西北西,13.1,83.3,2,4,4,4
71,2022-03-14T01:10:00,3.1,西,7.6,西北西,13,84.1,2,4,4,4
72,2022-03-14T01:11:00,2.9,西,7.6,西北西,13.1,84.7,1.5,4,4,4
73,2022-03-14T01:12:00,2.7,西,7.5,西,13.1,84.8,1,4,4,4
74,2022-03-14T01:13:00,2.7,西,7.5,西,13.1,84.7,1,4,4,4
75,2022-03-14T01:14:00,2.6,西,7.5,西,13,84.9,0.5,4,4,4
76,2022-03-14T01:15:00,2.5,西北西,7.5,西,12.9,85.4,1,4.5,4.5,4.5
77,2022-03-14T01:16:00,2.5,西北西,5.4,北北西,12.9,86.2,1,4.5,4.5,4.5
78,2022-03-14T01:17:00,2.6,西北西,5.6,北北西,12.9,87,0.5,4.5,4.5,4.5
79,2022-03-14T01:18:00,2.9,西北西,5.6,北北西,13,87.1,0.5,4.5,4.5,4.5
80,2022-03-14T01:19:00,3,北西,5.6,北北西,13,86.8,0.5,4.5,4.5,4.5
81,2022-03-14T01:20:00,3.1,北西,5.6,北北西,12.9,86.9,0.5,4.5,4.5,4.5
82,2022-03-14T01:21:00,3.2,北西,5.6,北北西,12.9,87.2,0.5,4.5,4.5,4.5
83,2022-03-14T01:22:00,3.3,北西,5.6,北北西,13,87.4,0.5,4.5,4.5,4.5
84,2022-03-14T01:23:00,3.4,北西,5.6,北北西,13,87.4,0.5,4.5,4.5,4.5
85,2022-03-14T01:24:00,3.7,北西,6.3,北北西,13,87.3,0.5,4.5,4.5,4.5
86,2022-03-14T01:25:00,3.7,北北西,6.3,北北西,13,87.2,0,4.5,4.5,4.5
87,2022-03-14T01:26:00,3.6,北北西,6.3,北北西,13,87.5,0.5,5,5,5
88,2022-03-14T01:27:00,3.6,北北西,6.3,北北西,13,87.6,0.5,5,5,5
89,2022-03-14T01:28:00,3.6,北北西,6.3,北北西,13,87.3,0.5,5,5,5
90,2022-03-14T01:29:00,3.7,北北西,6.3,北北西,13,87.3,0.5,5,5,5
91,2022-03-14T01:30:00,3.8,北北西,6.3,北北西,12.9,87.3,0.5,5,5,5
92,2022-03-14T01:31:00,3.7,北北西,6.3,北北西,12.9,87.4,0.5,5,5,5
93,2022-03-14T01:32:00,3.7,北北西,6.3,北北西,12.9,87.6,0.5,5,5,5
94,2022-03-14T01:33:00,3.6,北北西,6.3,北北西,12.8,87.6,0.5,5,5,5
95,2022-03-14T01:34:00,3.4,北北西,6.1,北北西,12.8,87.9,1,5.5,5.5,5.5
96,2022-03-14T01:35:00,3.3,北北西,6.1,北北西,12.8,88.2,1,5.5,5.5,5.5
97,2022-03-14T01:36:00,3.2,北西,6.1,北北西,12.7,88.2,0.5,5.5,5.5,5.5
98,2022-03-14T01:37:00,3,北北西,6.1,北北西,12.7,88.3,0.5,5.5,5.5,5.5
99,2022-03-14T01:38:00,3.1,北北西,6.1,北北西,12.7,88.4,0.5,5.5,5.5,5.5
100,2022-03-14T01:39:00,3.1,北西,5.8,北北西,12.6,88.7,0.5,5.5,5.5,5.5
101,2022-03-14T01:40:00,3,北西,5.1,北西,12.7,88.8,0.5,5.5,5.5,5.5
102,2022-03-14T01:41:00,3.1,北西,5.1,北西,12.7,88.9,1,6,6,6
103,2022-03-14T01:42:00,3.1,北西,5.1,北西,12.6,88.8,1,6,6,6
104,2022-03-14T01:43:00,3.2,北西,5.1,北西,12.6,88.8,1,6,6,6
105,2022-03-14T01:44:00,3.2,北西,5.1,北西,12.6,88.8,0.5,6,6,6
106,2022-03-14T01:45:00,3.3,北西,5.1,北西,12.6,88.9,0.5,6,6,6
107,2022-03-14T01:46:00,3.5,北西,5.6,北北西,12.6,89.2,0.5,6,6,6
108,2022-03-14T01:47:00,3.6,北西,5.6,北北西,12.6,89.3,0.5,6,6,6
109,2022-03-14T01:48:00,3.6,北西,5.6,北北西,12.6,89.2,0.5,6,6,6
110,2022-03-14T01:49:00,3.5,北西,5.6,北北西,12.6,89.3,0.5,6,6,6
111,2022-03-14T01:50:00,3.6,北北西,5.6,北北西,12.6,89.6,0.5,6,6,6
112,2022-03-14T01:51:00,3.6,北北西,5.6,北北西,12.6,89.4,0,6,6,6
113,2022-03-14T01:52:00,3.6,北北西,5.6,北北西,12.6,89.4,0,6,6,6
114,2022-03-14T01:53:00,3.6,北北西,5.6,北北西,12.6,89.3,0,5.5,6,6
115,2022-03-14T01:54:00,3.5,北北西,5.6,北北西,12.6,89.1,0,5.5,6,6
116,2022-03-14T01:55:00,3.5,北北西,5.6,北北西,12.5,89,0,5,6,6
117,2022-03-14T01:56:00,3.3,北西,5.3,北北西,12.5,88.9,0,5,6,6
118,2022-03-14T01:57:00,3.2,北西,5.1,北北西,12.4,89.2,0,5,6,6
119,2022-03-14T01:58:00,3.1,北西,5.1,北北西,12.4,89.5,0,4.5,6,6
120,2022-03-14T01:59:00,2.9,北西,4.8,北北西,12.3,89.8,0,4,6,6
121,2022-03-14T02:00:00,2.8,北西,4.6,北北西,12.3,90.3,0,4,6,6
122,2022-03-14T02:01:00,2.6,西北西,4.6,北北西,12.3,90.7,0,3.5,6,6
123,2022-03-14T02:02:00,2.4,西北西,4.3,北西,12.3,90.9,0,3,6,6
124,2022-03-14T02:03:00,2.1,西北西,4.3,北西,12.3,91.2,0,3,6,6
125,2022-03-14T02:04:00,1.9,西北西,4.1,北西,12.2,91.3,0,2.5,6,6
126,2022-03-14T02:05:00,1.6,西北西,3.4,西,12.2,91.5,0,2.5,6,6
127,2022-03-14T02:06:00,1.3,西北西,3.2,西北西,12.2,91.7,0,2.5,6,6
128,2022-03-14T02:07:00,1.2,西,2.7,西北西,12.2,92,0,2,6,6
129,2022-03-14T02:08:00,1.1,西,2.5,西北西,12,91.8,0,2,6,6
130,2022-03-14T02:09:00,1,西南西,2.4,北西,11.9,92.1,0,2,6,6
131,2022-03-14T02:10:00,0.9,南西,2.4,北西,11.9,92.8,0,2,6,6
132,2022-03-14T02:11:00,0.8,南南西,2,南南東,11.9,93.4,0,2,6,6
133,2022-03-14T02:12:00,0.8,南,2,南南東,11.9,93.9,0,2,6,6
134,2022-03-14T02:13:00,0.9,南,2,南南東,11.9,94.3,0,2,6,6
135,2022-03-14T02:14:00,1,南南東,2,南南東,11.9,94.6,0,2,6,6
136,2022-03-14T02:15:00,1.1,南南東,2.3,南南東,11.9,94.9,0,1.5,6,6
137,2022-03-14T02:16:00,1.3,南南東,2.3,南南東,11.9,95.1,0,1.5,6,6
138,2022-03-14T02:17:00,1.4,南南東,2.3,南南東,11.9,95.2,0,1.5,6,6
139,2022-03-14T02:18:00,1.4,南南東,2.5,南南東,11.9,95.3,0,1.5,6,6
140,2022-03-14T02:19:00,1.5,南南東,2.5,南南東,11.9,95.4,0,1.5,6,6
141,2022-03-14T02:20:00,1.6,南南東,2.5,南南東,11.9,95.5,0,1.5,6,6
142,2022-03-14T02:21:00,1.7,南南東,2.5,南南東,11.9,95.4,0,1.5,6,6
143,2022-03-14T02:22:00,1.7,南南東,2.5,南南東,11.9,95.4,0,1.5,6,6
144,2022-03-14T02:23:00,1.6,南南東,2.5,南南東,11.9,95.4,0,1.5,6,6
145,2022-03-14T02:24:00,1.5,南南東,2.5,南南東,11.9,95.4,0,1.5,6,6
146,2022-03-14T02:25:00,1.4,南南東,2.5,南南東,11.9,95.3,0,1.5,6,6
147,2022-03-14T02:26:00,1.2,南南東,2.5,南南東,11.9,95.3,0,1,6,6
148,2022-03-14T02:27:00,1.1,南南東,2.5,南南東,12,95.4,0,1,6,6
149,2022-03-14T02:28:00,0.9,南南東,2.4,南南東,12.1,95.6,0,1,6,6
150,2022-03-14T02:29:00,0.8,南東,2.2,南南東,12.1,95.6,0,1,6,6
151,2022-03-14T02:30:00,0.7,東南東,2.1,南東,12,95.6,0,1,6,6
152,2022-03-14T02:31:00,0.7,北東,2.8,北,11.9,95.4,0,1,6,6
153,2022-03-14T02:32:00,0.8,北北東,2.8,北,11.9,95.4,0,1,6,6
154,2022-03-14T02:33:00,0.8,北,2.8,北,11.8,95.5,0,1,6,6
155,2022-03-14T02:34:00,0.9,北,2.8,北,11.8,95.6,0,0.5,6,6
156,2022-03-14T02:35:00,1,北,2.8,北,11.8,95.7,0,0.5,6,6
157,2022-03-14T02:36:00,1.2,北,2.8,北,11.8,95.7,0,0.5,6,6
158,2022-03-14T02:37:00,1.4,北,2.9,北,11.8,95.8,0,0.5,6,6
159,2022-03-14T02:38:00,1.6,北,3.5,北,11.7,95.9,0,0.5,6,6
160,2022-03-14T02:39:00,1.7,北,3.7,北,11.7,95.9,0,0.5,6,6
161,2022-03-14T02:40:00,1.8,北,3.7,北,11.7,96,0,0.5,6,6
162,2022-03-14T02:41:00,1.8,北,3.7,北,11.7,96.1,0,0,6,6
163,2022-03-14T02:42:00,1.8,北,3.7,北,11.7,96.2,0,0,6,6
164,2022-03-14T02:43:00,1.7,北,3.7,北,11.7,96.2,0,0,6,6
165,2022-03-14T02:44:00,1.7,北,3.7,北,11.7,96.3,0,0,6,6
166,2022-03-14T02:45:00,1.7,北北西,3.7,北,11.7,96.3,0,0,6,6
167,2022-03-14T02:46:00,1.6,北北西,3.7,北,11.6,96.3,0,0,6,6
168,2022-03-14T02:47:00,1.4,北北西,3.7,北,11.6,96.4,0,0,6,6
169,2022-03-14T02:48:00,1.2,北西,3.7,北,11.6,96.4,0,0,6,6
170,2022-03-14T02:49:00,0.9,北西,2.9,北北西,11.6,96.4,0,0,6,6
171,2022-03-14T02:50:00,0.8,北西,2.3,北,11.6,96.5,0,0,6,6
172,2022-03-14T02:51:00,0.7,北西,1.9,北北西,11.7,96.6,0,0,6,6
173,2022-03-14T02:52:00,0.6,北西,1.8,北北西,11.7,96.7,0,0,6,6
174,2022-03-14T02:53:00,0.5,北西,1.8,北北西,11.6,96.6,0,0,6,6
175,2022-03-14T02:54:00,0.4,西北西,1.6,北北西,11.6,96.6,0,0,6,6
176,2022-03-14T02:55:00,0.4,南東,0.9,東,11.6,96.6,0,0,6,6
177,2022-03-14T02:56:00,0.4,東南東,0.9,東,11.7,96.8,0,0,6,6
178,2022-03-14T02:57:00,0.4,東,0.9,東,11.7,96.8,0,0,6,6
179,2022-03-14T02:58:00,0.4,東,0.9,東,11.6,96.8,0,0,6,6
180,2022-03-14T02:59:00,0.5,東南東,0.9,東,11.6,96.8,0,0,6,6
181,2022-03-14T03:00:00,0.5,東南東,0.9,東,11.8,96.9,0,0,6,6
182,2022-03-14T03:01:00,0.4,東南東,0.9,東,11.8,97.1,0,0,6,6
183,2022-03-14T03:02:00,0.4,東,0.9,東,11.7,96.9,0,0,6,6
184,2022-03-14T03:03:00,0.5,東,1.3,西北西,11.6,96.8,0,0,6,6
185,2022-03-14T03:04:00,0.6,東,1.7,西北西,11.5,96.6,0,0,6,6
186,2022-03-14T03:05:00,0.6,東北東,1.7,西北西,11.4,96.4,0,0,6,6
187,2022-03-14T03:06:00,0.7,北,1.7,西北西,11.4,96.5,0,0,6,6
188,2022-03-14T03:07:00,0.7,西北西,1.7,西北西,11.4,96.6,0,0,6,6
189,2022-03-14T03:08:00,0.7,西北西,1.7,西北西,11.4,96.7,0,0,6,6
190,2022-03-14T03:09:00,0.8,西北西,1.7,西北西,11.5,96.8,0,0,6,6
191,2022-03-14T03:10:00,0.8,西北西,1.7,西北西,11.4,96.9,0,0,6,6
192,2022-03-14T03:11:00,0.9,西,1.7,西北西,11.4,96.8,0,0,6,6
193,2022-03-14T03:12:00,1,西,1.7,西北西,11.4,96.8,0,0,6,6
194,2022-03-14T03:13:00,1,西,1.7,西北西,11.4,96.8,0,0,6,6
195,2022-03-14T03:14:00,1,西,1.6,西,11.4,96.9,0,0,6,6
196,2022-03-14T03:15:00,1,西,1.6,西,11.4,96.9,0,0,6,6
197,2022-03-14T03:16:00,1,西,1.6,西,11.4,96.9,0,0,6,6
198,2022-03-14T03:17:00,0.9,西,1.6,西,11.4,96.9,0,0,6,6
199,2022-03-14T03:18:00,0.9,西,1.6,西,11.4,97,0,0,6,6
200,2022-03-14T03:19:00,0.9,西南西,1.6,西,11.4,97,0,0,6,6
201,2022-03-14T03:20:00,0.8,西南西,1.6,西,11.4,96.9,0,0,6,6
202,2022-03-14T03:21:00,0.8,南西,1.6,西,11.4,97,0,0,6,6
203,2022-03-14T03:22:00,0.8,南西,1.6,西,11.4,97,0,0,6,6
204,2022-03-14T03:23:00,0.9,南南西,2.2,南南東,11.4,97,0,0,6,6
205,2022-03-14T03:24:00,0.9,南南西,2.2,南南東,11.5,97.1,0,0,6,6
206,2022-03-14T03:25:00,0.9,南,2.2,南南東,11.5,97.1,0,0,6,6
207,2022-03-14T03:26:00,0.9,南南東,2.2,南南東,11.5,97.1,0,0,6,6
208,2022-03-14T03:27:00,0.9,南南東,2.2,南南東,11.5,97.1,0,0,6,6
209,2022-03-14T03:28:00,0.9,南南東,2.2,南南東,11.5,97.1,0,0,6,6
210,2022-03-14T03:29:00,0.9,南南東,2.2,南南東,11.5,97.1,0,0,6,6
211,2022-03-14T03:30:00,1,南,2.2,南南東,11.5,97.1,0,0,6,6
212,2022-03-14T03:31:00,1,南,2.2,南南東,11.5,97,0,0,6,6
213,2022-03-14T03:32:00,1,南,2.2,南南東,11.5,97,0,0,6,6
214,2022-03-14T03:33:00,0.9,南,1.8,南南東,11.5,97,0,0,6,6
215,2022-03-14T03:34:00,0.8,南,1.7,西南西,11.6,97,0,0,6,6
216,2022-03-14T03:35:00,0.7,南南西,1.7,西南西,11.6,96.9,0,0,6,6
217,2022-03-14T03:36:00,0.7,南南西,1.7,西南西,11.5,96.9,0,0,6,6
218,2022-03-14T03:37:00,0.7,南南西,1.7,西南西,11.5,96.8,0,0,6,6
219,2022-03-14T03:38:00,0.7,南南西,1.7,西南西,11.6,96.8,0,0,6,6
220,2022-03-14T03:39:00,0.7,南南西,1.7,西南西,11.5,96.8,0,0,6,6
221,2022-03-14T03:40:00,0.7,南,1.7,西南西,11.5,96.7,0,0,6,6
222,2022-03-14T03:41:00,0.7,南,1.4,南南東,11.5,96.7,0,0,6,6
223,2022-03-14T03:42:00,0.7,南,1.4,南南東,11.5,96.7,0,0,6,6
224,2022-03-14T03:43:00,0.7,南,1.9,南東,11.5,96.7,0,0,6,6
225,2022-03-14T03:44:00,0.8,南,1.9,南東,11.5,96.7,0,0,6,6
226,2022-03-14T03:45:00,0.9,南南東,2,東南東,11.5,96.7,0,0,6,6
227,2022-03-14T03:46:00,1,南南東,2,東南東,11.5,96.7,0,0,6,6
228,2022-03-14T03:47:00,1.1,南南東,2,東南東,11.5,96.7,0,0,6,6
229,2022-03-14T03:48:00,1.1,南東,2,東南東,11.4,96.7,0,0,6,6
230,2022-03-14T03:49:00,1,南東,2,東南東,11.5,96.7,0,0,6,6
231,2022-03-14T03:50:00,0.9,南東,2,東南東,11.5,96.8,0,0,6,6
232,2022-03-14T03:51:00,0.9,南東,2,東南東,11.4,96.8,0,0,6,6
233,2022-03-14T03:52:00,0.9,南東,2,東南東,11.4,96.7,0,0,6,6
234,2022-03-14T03:53:00,0.8,南東,2,東南東,11.4,96.8,0,0,6,6
235,2022-03-14T03:54:00,0.8,南東,2,東南東,11.4,96.8,0,0,6,6
236,2022-03-14T03:55:00,0.7,南東,1.9,東南東,11.4,96.8,0,0,6,6
237,2022-03-14T03:56:00,0.7,南東,1.4,南東,11.4,96.9,0,0,6,6
238,2022-03-14T03:57:00,0.7,南東,1.3,東南東,11.4,96.9,0,0,6,6
239,2022-03-14T03:58:00,0.7,南東,1.3,東南東,11.4,97,0,0,6,6
240,2022-03-14T03:59:00,0.8,南東,1.3,東南東,11.5,97.1,0,0,6,6
241,2022-03-14T04:00:00,0.9,南東,1.3,東南東,11.5,97.1,0,0,6,6
242,2022-03-14T04:01:00,0.9,南東,1.3,東南東,11.4,97.1,0,0,6,6
243,2022-03-14T04:02:00,0.9,南東,1.3,東南東,11.4,97,0,0,6,6
244,2022-03-14T04:03:00,1,南東,1.6,東南東,11.4,97,0,0,6,6
245,2022-03-14T04:04:00,1,南東,2.3,南東,11.4,97,0,0,6,6
246,2022-03-14T04:05:00,1.1,南東,2.4,南東,11.4,97,0,0,6,6
247,2022-03-14T04:06:00,1.2,南東,2.7,南東,11.4,97.1,0,0,6,6
248,2022-03-14T04:07:00,1.3,南東,2.7,南東,11.4,97.1,0,0,6,6
249,2022-03-14T04:08:00,1.4,南東,2.8,南東,11.4,97.1,0,0,6,6
250,2022-03-14T04:09:00,1.5,南東,2.8,南東,11.4,97.2,0,0,6,6
251,2022-03-14T04:10:00,1.5,南東,2.8,南東,11.4,97.2,0,0,6,6
252,2022-03-14T04:11:00,1.5,南東,2.8,南東,11.4,97.2,0,0,6,6
253,2022-03-14T04:12:00,1.5,南東,2.8,南東,11.4,97.2,0,0,6,6
254,2022-03-14T04:13:00,1.5,南東,2.8,南東,11.4,97.3,0,0,6,6
255,2022-03-14T04:14:00,1.4,南東,2.8,南東,11.4,97.3,0,0,6,6
256,2022-03-14T04:15:00,1.3,東南東,2.8,南東,11.4,97.3,0,0,6,6
257,2022-03-14T04:16:00,1.2,東南東,2.8,南東,11.5,97.3,0,0,6,6
258,2022-03-14T04:17:00,1,東,2.8,南東,11.5,97.4,0,0,6,6
259,2022-03-14T04:18:00,0.9,東,2.2,南東,11.5,97.4,0,0,6,6
260,2022-03-14T04:19:00,0.9,東,2.2,南東,11.4,97.3,0,0,6,6
261,2022-03-14T04:20:00,0.8,東北東,2,東南東,11.4,97.3,0,0,6,6
262,2022-03-14T04:21:00,0.8,東北東,2,東南東,11.4,97.3,0,0,6,6
263,2022-03-14T04:22:00,0.8,東北東,1.7,東南東,11.4,97.3,0,0,6,6
264,2022-03-14T04:23:00,0.8,東北東,1.7,東南東,11.4,97.3,0,0,6,6
265,2022-03-14T04:24:00,0.9,東北東,1.8,東南東,11.4,97.4,0,0,6,6
266,2022-03-14T04:25:00,0.9,東北東,1.8,東南東,11.4,97.4,0,0,6,6
267,2022-03-14T04:26:00,0.8,東北東,1.8,東南東,11.4,97.4,0,0,6,6
268,2022-03-14T04:27:00,0.8,東北東,1.8,東南東,11.4,97.5,0,0,6,6
269,2022-03-14T04:28:00,0.8,東北東,1.8,東南東,11.4,97.5,0,0,6,6
270,2022-03-14T04:29:00,0.7,北東,1.8,東南東,11.4,97.4,0,0,6,6
271,2022-03-14T04:30:00,0.7,北東,1.8,東南東,11.4,97.4,0,0,6,6
272,2022-03-14T04:31:00,0.7,北東,1.8,東南東,11.4,97.4,0,0,6,6
273,2022-03-14T04:32:00,0.7,北,1.8,東南東,11.4,97.5,0,0,6,6
274,2022-03-14T04:33:00,0.6,北北西,1.8,東南東,11.4,97.5,0,0,6,6
275,2022-03-14T04:34:00,0.4,北北西,1.1,東,11.4,97.5,0,0,6,6
276,2022-03-14T04:35:00,0.4,北西,1,西北西,11.4,97.5,0,0,6,6
277,2022-03-14T04:36:00,0.4,北西,1,西北西,11.4,97.5,0,0,6,6
278,2022-03-14T04:37:00,0.4,西北西,1,西北西,11.4,97.5,0,0,6,6
279,2022-03-14T04:38:00,0.4,西北西,1,西北西,11.4,97.5,0,0,6,6
280,2022-03-14T04:39:00,0.4,西北西,1,西北西,11.3,97.4,0,0,6,6
281,2022-03-14T04:40:00,0.3,西北西,1,西北西,11.4,97.4,0,0,6,6
282,2022-03-14T04:41:00,0.3,西北西,0.6,西北西,11.4,97.4,0,0,6,6
283,2022-03-14T04:42:00,0.2,静穏,0.6,西北西,11.4,97.5,0,0,6,6
284,2022-03-14T04:43:00,0.3,西,0.6,西北西,11.4,97.5,0,0,6,6
285,2022-03-14T04:44:00,0.3,西,0.6,西北西,11.4,97.5,0,0,6,6
286,2022-03-14T04:45:00,0.3,西,0.7,西北西,11.4,97.5,0,0,6,6
287,2022-03-14T04:46:00,0.3,西,0.8,北西,11.3,97.4,0,0,6,6
288,2022-03-14T04:47:00,0.4,西,0.8,北西,11.4,97.4,0,0,6,6
289,2022-03-14T04:48:00,0.4,西,1,北西,11.4,97.4,0,0,6,6
290,2022-03-14T04:49:00,0.5,西,1.2,西北西,11.4,97.4,0,0,6,6
291,2022-03-14T04:50:00,0.6,西北西,1.4,北西,11.4,97.4,0,0,6,6
292,2022-03-14T04:51:00,0.7,西北西,1.4,北西,11.4,97.4,0,0,6,6
293,2022-03-14T04:52:00,0.8,西北西,1.4,北西,11.4,97.4,0,0,6,6
294,2022-03-14T04:53:00,0.9,北西,1.5,北北西,11.4,97.4,0,0,6,6
295,2022-03-14T04:54:00,1,北西,1.6,北北西,11.4,97.4,0,0,6,6
296,2022-03-14T04:55:00,1.1,北西,1.6,北北西,11.4,97.4,0,0,6,6
297,2022-03-14T04:56:00,1.1,北西,1.6,北北西,11.4,97.4,0,0,6,6
298,2022-03-14T04:57:00,1.1,北西,1.6,北北西,11.4,97.4,0,0,6,6
299,2022-03-14T04:58:00,1,北西,1.6,北北西,11.3,97.3,0,0,6,6
300,2022-03-14T04:59:00,1,北西,1.6,北北西,11.3,97.3,0,0,6,6
301,2022-03-14T05:00:00,0.9,北西,1.6,北北西,11.4,97.4,0,0,6,6
302,2022-03-14T05:01:00,0.8,北西,1.6,北北西,11.3,97.3,0,0,6,6
303,2022-03-14T05:02:00,0.7,北西,1.6,北北西,11.3,97.3,0,0,6,6
304,2022-03-14T05:03:00,0.6,西北西,1.6,北北西,11.3,97.3,0,0,6,6
305,2022-03-14T05:04:00,0.5,西北西,1.3,北北西,11.3,97.3,0,0,6,6
306,2022-03-14T05:05:00,0.4,西北西,0.9,北北西,11.3,97.3,0,0,6,6
307,2022-03-14T05:06:00,0.4,西,0.7,西北西,11.3,97.3,0,0,6,6
308,2022-03-14T05:07:00,0.4,西,0.9,西,11.3,97.4,0,0,6,6
309,2022-03-14T05:08:00,0.4,西,1,西北西,11.3,97.4,0,0,6,6
310,2022-03-14T05:09:00,0.5,西,1,西北西,11.3,97.4,0,0,6,6
311,2022-03-14T05:10:00,0.5,西,1,西北西,11.3,97.3,0,0,6,6
312,2022-03-14T05:11:00,0.6,西北西,1.2,北西,11.3,97.3,0,0,6,6
313,2022-03-14T05:12:00,0.6,西北西,1.4,北西,11.2,97.3,0,0,6,6
314,2022-03-14T05:13:00,0.7,西北西,1.4,北西,11.2,97.3,0,0,6,6
315,2022-03-14T05:14:00,0.8,西北西,1.4,北西,11.2,97.3,0,0,6,6
316,2022-03-14T05:15:00,0.9,北西,1.6,北北西,11.2,97.3,0,0,6,6
317,2022-03-14T05:16:00,0.9,北西,1.6,北北西,11.2,97.4,0,0,6,6
318,2022-03-14T05:17:00,1,北西,1.6,北北西,11.2,97.4,0,0,6,6
319,2022-03-14T05:18:00,1,北西,1.6,北北西,11.2,97.4,0,0,6,6
320,2022-03-14T05:19:00,1.1,北西,1.6,北北西,11.2,97.4,0,0,6,6
321,2022-03-14T05:20:00,1.2,北北西,1.9,北北西,11.2,97.4,0,0,6,6
322,2022-03-14T05:21:00,1.3,北北西,2.1,北北西,11.2,97.4,0,0,6,6
323,2022-03-14T05:22:00,1.3,北北西,2.2,北北西,11.2,97.5,0,0,6,6
324,2022-03-14T05:23:00,1.4,北北西,2.2,北北西,11.2,97.4,0,0,6,6
325,2022-03-14T05:24:00,1.5,北北西,2.2,北北西,11.2,97.5,0,0,6,6
326,2022-03-14T05:25:00,1.5,北北西,2.2,北北西,11.2,97.5,0,0,6,6
327,2022-03-14T05:26:00,1.6,北北西,2.2,北北西,11.2,97.5,0,0,6,6
328,2022-03-14T05:27:00,1.6,北北西,2.2,北北西,11.2,97.4,0,0,6,6
329,2022-03-14T05:28:00,1.7,北北西,2.5,北西,11.2,97.4,0,0,6,6
330,2022-03-14T05:29:00,1.7,北北西,2.5,北西,11.1,97.4,0,0,6,6
331,2022-03-14T05:30:00,1.7,北北西,2.5,北西,11.1,97.4,0,0,6,6
332,2022-03-14T05:31:00,1.7,北北西,2.5,北西,11.1,97.5,0,0,6,6
333,2022-03-14T05:32:00,1.7,北北西,2.5,北西,11.1,97.5,0,0,6,6
334,2022-03-14T05:33:00,1.7,北北西,2.5,北西,11.2,97.5,0,0,6,6
335,2022-03-14T05:34:00,1.6,北北西,2.5,北西,11.2,97.6,0,0,6,6
336,2022-03-14T05:35:00,1.5,北北西,2.5,北西,11.2,97.6,0,0,6,6
337,2022-03-14T05:36:00,1.5,北北西,2.5,北西,11.2,97.6,0,0,6,6
338,2022-03-14T05:37:00,1.4,北,2.5,北西,11.2,97.6,0,0,6,6
339,2022-03-14T05:38:00,1.3,北,2.5,北北西,11.2,97.6,0,0,6,6
340,2022-03-14T05:39:00,1.3,北,2.5,北北西,11.2,97.6,0,0,6,6
341,2022-03-14T05:40:00,1.3,北,2.5,北北西,11.1,97.4,0,0,6,6
342,2022-03-14T05:41:00,1.2,北,2.5,北北西,11.1,97.5,0,0,6,6
343,2022-03-14T05:42:00,1.2,北,2.5,北北西,11.1,97.6,0,0,6,6
344,2022-03-14T05:43:00,1.1,北,2.1,北北西,11.1,97.5,0,0,6,6
345,2022-03-14T05:44:00,1.1,北北西,2,北北西,11,97.5,0,0,6,6
346,2022-03-14T05:45:00,1.1,北北西,2,北北西,11.1,97.5,0,0,6,6
347,2022-03-14T05:46:00,1.1,北北西,2,北北西,11.1,97.6,0,0,6,6
348,2022-03-14T05:47:00,1.1,北北西,2,北北西,11.1,97.6,0,0,6,6
349,2022-03-14T05:48:00,1.1,北北西,2,北北西,11.1,97.6,0,0,6,6
350,2022-03-14T05:49:00,1.1,北北西,1.9,北北西,11.1,97.6,0,0,6,6
351,2022-03-14T05:50:00,1.1,北北西,1.9,北北西,11.1,97.6,0,0,6,6
352,2022-03-14T05:51:00,1.1,北北西,1.9,北北西,11.1,97.6,0,0,6,6
353,2022-03-14T05:52:00,1.2,北北西,1.9,北北西,11.1,97.6,0,0,6,6
354,2022-03-14T05:53:00,1.3,北西,2.6,西北西,11.1,97.6,0,0,6,6
355,2022-03-14T05:54:00,1.4,北西,2.8,西北西,11.1,97.6,0,0,6,6
356,2022-03-14T05:55:00,1.6,北西,2.8,西北西,11.2,97.6,0,0,6,6
357,2022-03-14T05:56:00,1.6,北西,2.8,西北西,11.2,97.6,0,0,6,6
358,2022-03-14T05:57:00,1.8,北西,2.8,西北西,11.2,97.6,0,0,6,6
359,2022-03-14T05:58:00,1.8,北西,2.8,西北西,11.2,97.6,0,0,6,6
360,2022-03-14T05:59:00,1.9,北西,2.8,西北西,11.2,97.6,0,0,6,6
361,2022-03-14T06:00:00,2,北西,2.8,西北西,11.2,97.6,0,0,6,6
362,2022-03-14T06:01:00,2,北西,2.8,西北西,11.2,97.6,0,0,6,6
363,2022-03-14T06:02:00,2,北西,2.8,西北西,11.2,97.5,0,0,6,6
364,2022-03-14T06:03:00,2,北西,2.8,西北西,11.1,97.5,0,0,6,6
365,2022-03-14T06:04:00,1.9,北西,2.8,北西,11.2,97.5,0,0,6,6
366,2022-03-14T06:05:00,1.8,北北西,2.7,北北西,11.1,97.5,0,0,6,6
367,2022-03-14T06:06:00,1.8,北北西,2.7,北北西,11.1,97.4,0,0,6,6
368,2022-03-14T06:07:00,1.9,北北西,2.7,北北西,11.1,97.4,0,0,6,6
369,2022-03-14T06:08:00,1.8,北北西,2.7,北北西,11.1,97.4,0,0,6,6
370,2022-03-14T06:09:00,1.7,北北西,2.5,北西,11.1,97.4,0,0,6,6
371,2022-03-14T06:10:00,,"",,"",,,,,,
372,2022-03-14T06:11:00,1.6,北北西,2.5,北西,11.1,97.4,0,0,6,6
373,2022-03-14T06:12:00,1.6,北北西,2.5,北西,11.1,97.4,0,0,6,6
374,2022-03-14T06:13:00,1.6,北西,2.5,北西,11,97.3,0,0,6,6
375,2022-03-14T06:14:00,1.5,北西,2.5,北西,10.9,97.2,0,0,6,6
376,2022-03-14T06:15:00,1.5,北西,2.5,北西,10.9,97.2,0,0,6,6
377,2022-03-14T06:16:00,1.4,北西,2.5,北西,10.9,97.2,0,0,6,6
378,2022-03-14T06:17:00,1.3,北西,2.1,北北西,10.9,97.2,0,0,6,6
379,2022-03-14T06:18:00,1.3,西北西,2,西,10.9,97.2,0,0,6,6
380,2022-03-14T06:19:00,1.3,西北西,2,西,10.9,97.2,0,0,6,6
381,2022-03-14T06:20:00,1.3,西北西,2,西,10.9,97.2,0,0,6,6
382,2022-03-14T06:21:00,1.3,西北西,2,西,10.8,97.2,0,0,6,6
383,2022-03-14T06:22:00,1.3,西北西,2.1,西北西,10.8,97.2,0,0,6,6
384,2022-03-14T06:23:00,1.3,西北西,2.7,西北西,10.8,97.2,0,0,6,6
385,2022-03-14T06:24:00,1.4,西北西,2.7,西北西,10.9,97.3,0,0,6,6
386,2022-03-14T06:25:00,1.5,西北西,2.7,西北西,10.9,97.3,0,0,6,6
387,2022-03-14T06:26:00,1.6,西北西,2.7,西北西,10.9,97.4,0,0,6,6
388,2022-03-14T06:27:00,1.6,西北西,2.7,西北西,10.9,97.3,0,0,6,6
389,2022-03-14T06:28:00,1.6,西北西,2.7,西北西,10.9,97.3,0,0,6,6
390,2022-03-14T06:29:00,1.7,西北西,2.7,西北西,10.9,97.3,0,0,6,6
391,2022-03-14T06:30:00,1.7,西北西,2.7,西北西,10.9,97.3,0,0,6,6
392,2022-03-14T06:31:00,1.7,西北西,2.7,西北西,10.9,97.3,0,0,6,6
393,2022-03-14T06:32:00,1.7,西北西,2.7,西北西,10.9,97.3,0,0,6,6
394,2022-03-14T06:33:00,1.6,西北西,2.5,西北西,10.9,97.3,0,0,6,6
395,2022-03-14T06:34:00,1.6,西北西,2.5,西北西,10.8,97.3,0,0,6,6
396,2022-03-14T06:35:00,1.4,西北西,2.2,北西,10.9,97.3,0,0,6,6
397,2022-03-14T06:36:00,1.4,西北西,2.1,西北西,10.9,97.3,0,0,6,6
398,2022-03-14T06:37:00,1.3,西北西,2,西北西,10.9,97.4,0,0,6,6
399,2022-03-14T06:38:00,1.3,西北西,2,西北西,10.9,97.3,0,0,6,6
400,2022-03-14T06:39:00,1.2,西北西,1.7,西北西,10.9,97.3,0,0,6,6
401,2022-03-14T06:40:00,1.2,北西,1.7,西北西,10.9,97.4,0,0,6,6
402,2022-03-14T06:41:00,1.1,北西,1.7,西北西,11,97.5,0,0,6,6
403,2022-03-14T06:42:00,1.1,北西,1.7,西北西,10.9,97.5,0,0,6,6
404,2022-03-14T06:43:00,0.9,北西,1.7,西北西,10.9,97.3,0,0,6,6
405,2022-03-14T06:44:00,0.9,北北西,1.5,北西,10.9,97.3,0,0,6,6
406,2022-03-14T06:45:00,0.8,北北西,1.5,北西,11,97.4,0,0,6,6
407,2022-03-14T06:46:00,0.7,北北西,1.5,北西,11,97.4,0,0,6,6
408,2022-03-14T06:47:00,0.6,北,1.4,西北西,11,97.4,0,0,6,6
409,2022-03-14T06:48:00,0.5,北,1.2,北北西,11,97.4,0,0,6,6
410,2022-03-14T06:49:00,0.5,北,1.2,北北西,11,97.4,0,0,6,6
411,2022-03-14T06:50:00,0.4,北,1.2,北北西,11,97.4,0,0,6,6
412,2022-03-14T06:51:00,0.3,北,1.1,北北西,11.1,97.3,0,0,6,6
413,2022-03-14T06:52:00,0.3,北北東,0.8,北北西,11.2,97.4,0,0,6,6
414,2022-03-14T06:53:00,0.3,北北東,0.8,北北西,11.2,97.4,0,0,6,6
415,2022-03-14T06:54:00,0.3,北北東,0.8,北北西,11.2,97.3,0,0,6,6
416,2022-03-14T06:55:00,0.3,北北東,0.9,北北東,11.2,97.3,0,0,6,6
417,2022-03-14T06:56:00,0.4,北北東,1.7,北北東,11.2,97.3,0,0,6,6
418,2022-03-14T06:57:00,0.5,北北東,1.7,北北東,11.2,97.3,0,0,6,6
419,2022-03-14T06:58:00,0.4,北北東,1.7,北北東,11.2,97.2,0,0,6,6
420,2022-03-14T06:59:00,0.5,北北東,1.7,北北東,11.2,97.1,0,0,6,6
421,2022-03-14T07:00:00,0.5,北,1.7,北北東,11.2,97.1,0,0,6,6
422,2022-03-14T07:01:00,0.5,北,1.7,北北東,11.2,96.9,0,0,6,6
423,2022-03-14T07:02:00,0.6,北,1.7,北北東,11.2,96.9,0,0,6,6